Location: Sungai Apap
(2.6167°N, 113.3833°E)
Time: 14:19:37
(UTC+00:00)

ARIANE 2 DEB - Pass Details

Date: 25 May 2024
Orbit: 462 x 35174 km, 8.0° (Epoch: 12 June)

Event Time Altitude Azimuth Distance (km) Brightness Sun altitude
Exits shadow 21:18:03 19° 277° (W) 1,492 5.0 -14.2°
Maximum altitude 21:20:28 55° 352° (N) 576 3.5 -13.7°
Drops below altitude 10° 21:23:16 10° 72° (ENE) 1,638 7.2 -13.0°
Sets 21:25:30 0° 78° (ENE) 2,825 8.8 -12.5°
